TimeCDT,TemperatureF,Dew PointF,Humidity,Sea Level PressureIn,VisibilityMPH,Wind Direction,Wind SpeedMPH,Gust SpeedMPH,PrecipitationIn,Events,Conditions,WindDirDegrees,DateUTC
12:53 AM,69.1,64.0,84,30.13,10.0,Calm,Calm,-,N/A,,Clear,0,2012-10-04 05:53:00
1:53 AM,68.0,63.0,84,30.14,10.0,Calm,Calm,-,N/A,,Clear,0,2012-10-04 06:53:00
2:53 AM,66.9,62.1,84,30.14,10.0,ENE,3.5,-,N/A,,Clear,60,2012-10-04 07:53:00
3:53 AM,66.0,62.1,87,30.14,10.0,Calm,Calm,-,N/A,,Clear,0,2012-10-04 08:53:00
4:53 AM,64.9,61.0,87,30.16,9.0,Calm,Calm,-,N/A,,Clear,0,2012-10-04 09:53:00
5:53 AM,64.9,61.0,87,30.18,9.0,ENE,4.6,-,N/A,,Clear,70,2012-10-04 10:53:00
6:53 AM,64.9,61.0,87,30.19,9.0,NE,3.5,-,N/A,,Clear,50,2012-10-04 11:53:00
7:53 AM,68.0,62.1,81,30.19,9.0,Calm,Calm,-,N/A,,Clear,0,2012-10-04 12:53:00
8:53 AM,73.0,64.9,76,30.21,9.0,NE,5.8,-,N/A,,Clear,50,2012-10-04 13:53:00
9:53 AM,77.0,68.0,74,30.22,10.0,NE,5.8,-,N/A,,Clear,50,2012-10-04 14:53:00
10:53 AM,80.1,69.1,69,30.22,10.0,ENE,6.9,-,N/A,,Partly Cloudy,70,2012-10-04 15:53:00
11:53 AM,82.0,68.0,62,30.20,10.0,East,4.6,-,N/A,,Scattered Clouds,80,2012-10-04 16:53:00
12:53 PM,82.9,69.1,63,30.18,10.0,Calm,Calm,-,N/A,,Scattered Clouds,0,2012-10-04 17:53:00
1:53 PM,84.0,68.0,58,30.16,10.0,SSE,8.1,-,N/A,,Partly Cloudy,150,2012-10-04 18:53:00
2:53 PM,82.9,68.0,60,30.15,10.0,SE,4.6,-,N/A,,Partly Cloudy,140,2012-10-04 19:53:00
3:53 PM,84.0,69.1,61,30.14,10.0,South,6.9,-,N/A,,Scattered Clouds,170,2012-10-04 20:53:00
4:53 PM,82.0,69.1,65,30.14,10.0,South,6.9,-,N/A,,Partly Cloudy,170,2012-10-04 21:53:00
5:53 PM,79.0,70.0,74,30.14,10.0,SSW,3.5,-,N/A,,Clear,200,2012-10-04 22:53:00
6:53 PM,77.0,70.0,79,30.14,10.0,Calm,Calm,-,N/A,,Clear,0,2012-10-04 23:53:00
7:53 PM,73.9,70.0,87,30.14,10.0,Calm,Calm,-,N/A,,Clear,0,2012-10-05 00:53:00
8:53 PM,73.0,69.1,87,30.15,9.0,Calm,Calm,-,N/A,,Clear,0,2012-10-05 01:53:00
9:53 PM,72.0,69.1,91,30.16,7.0,Calm,Calm,-,N/A,,Clear,0,2012-10-05 02:53:00
10:53 PM,71.1,68.0,90,30.16,7.0,Calm,Calm,-,N/A,,Clear,0,2012-10-05 03:53:00
11:53 PM,71.1,68.0,90,30.15,7.0,Calm,Calm,-,N/A,,Clear,0,2012-10-05 04:53:00